"Pseudo-MPEC" for ZLB2C6D

Created 2018 Jun 18 13:18:43 UT using Find_Orb

Click here for an explanation of pseudo-MPECs

 
 Astrometry: 
     ZLB2C6D  C2018 06 12.42713 23 56 24.82 +09 16 26.0          21.1 GUNEOCPG96
     ZLB2C6D  C2018 06 12.43147 23 56 25.64 +09 16 28.7          21.4 GUNEOCPG96
     ZLB2C6D  C2018 06 12.43582 23 56 26.39 +09 16 32.0          20.7 GUNEOCPG96
     ZLB2C6D  C2018 06 12.44018 23 56 27.18 +09 16 36.3          22.1 GUNEOCPG96
     ZLB2C6D  C2018 06 12.44883 23 56 28.77 +09 16 41.8          21.1 GUNEOCPG96
     ZLB2C6D  C2018 06 12.45054 23 56 29.02 +09 16 43.8          21.4 GUNEOCPG96
     ZLB2C6D  C2018 06 12.45236 23 56 29.38 +09 16 44.9          21.9 GUNEOCPG96
     ZLB2C6D  C2018 06 12.45411 23 56 29.71 +09 16 45.9          21.6 GUNEOCPG96
     ZLB2C6D KC2018 06 13P)Astrometry[9;vUSTH]FjJ8@K6R/P\xt.%=.1P8:1QVa`co/!;J04
     ZLB2C6D KC2018 06 13SKSsQC%`taaL6oQSXredacted;b)pWo3seeVbPKQA%WOR.L2nM/MJ04
     ZLB2C6D KC2018 06 13cYXkuF;Ro=?%Zo+_G'$0qf\]470DtWv6HK6c#+[veolpTmwNEOCPJ04
     ZLB2C6D  C2018 06 14.40673 00 02 26.85 +09 40 51.5          20.4 GUNEOCPI52
     ZLB2C6D  C2018 06 14.41432 00 02 28.27 +09 40 56.2          20.9 GUNEOCPI52
     ZLB2C6D  C2018 06 14.41809 00 02 28.91 +09 40 59.1          20.7 GUNEOCPI52
     ZLB2C6D  C2018 06 14.42186 00 02 29.62 +09 41 01.9          21.2 GUNEOCPI52
     ZLB2C6D  C2018 06 18.40072 00 14 46.42 +10 28 31.9          21.2 GUNEOCPI52
     ZLB2C6D  C2018 06 18.40321 00 14 46.89 +10 28 33.4          21.6 GUNEOCPI52
     ZLB2C6D  C2018 06 18.40617 00 14 47.45 +10 28 35.6          21.5 GUNEOCPI52

Station data:
(G96) Mt. Lemmon Survey  (N32.442754 W110.788720)  US/Arizona.  Observers B.
   M. Africano, E. J. Christensen, D. C. Fuls, A. R. Gibbs, A. D. Grauer, J.
   A. Johnson, R. A. Kowalski, S. M. Larson, G. J. Leonard, R. L. Seaman, F.
   C. Shelly. 1.5-m reflector + 10K CCD.
(I52) Steward Observatory, Mt. Lemmon Station  (N32.442547 W110.788920)
   US/Arizona.  Observers B. M. Africano, E. J. Christensen, D. C. Fuls, A.
   R. Gibbs, A. D. Grauer, J. A. Johnson, R. A. Kowalski, S. M. Larson, G. J.
   Leonard, R. L. Seaman, F. C. Shelly. 1.0-m reflector + CCD.
(J04) ESA Optical Ground Station, Tenerife  (N28.300924 W16.511830)  Canary
   Islands (Spain).  Observer D. Abreu. Measurers M. Micheli, D. Koschny, E.
   Schwab, M. Busch, A. Knöfel. 1.0-m f/4.4 reflector + CCD.

Orbital elements:  ZLB2C6D
   Perihelion 2018 Aug 8.363248 TT =  8:43:04 (JD 2458338.863248)
Epoch 2018 Jun 18.0 TT = JDT 2458287.5   Earth MOID: 0.3973   Ju: 0.1726
M 351.69705                         Ma: 0.0086                AutoNEOCP
n   0.16165142     Peri.  186.45937
a   3.33746217     Node   174.71353
e   0.5804589      Incl.   14.41118
P   6.10           H   18.3     G   0.15   q 1.40020241  Q 5.27472193
From 18 observations 2018 June 12-18; mean residual 0".28
Residuals in arcseconds: 
180612 G96  .08-  .19+    180612 G96  .05-  .13+    180614 I52  .40+  .17-    
180612 G96  .45+  .37-    180612 G96  .16+  .18-    180614 I52  .31-  .05-    
180612 G96  .09-  .34-    180613 J04  .09-  .14+    180614 I52  .02+  .03-    
180612 G96  .06-  .68+    180613 J04  .04-  .11-    180618 I52  .13-  .10+    
180612 G96  .35+  .32-    180613 J04  .02+  .46-    180618 I52  .01-  .15-    
180612 G96  .52-  .40+    180614 I52  .11-  .73+    180618 I52  .15+  .04-    

Ephemerides (geocentric):
Date (UTC) HH   RA              Dec         delta   r     elong  mag
---- -- -- --  -------------   -----------  ------ ------ -----  ---
2018 06 18 13  00 15 12.406   +10 30 13.26  1.3146 1.5068  79.4 21.4
2018 06 18 14  00 15 20.190   +10 30 42.32  1.3143 1.5067  79.4 21.4
2018 06 18 15  00 15 27.975   +10 31 11.37  1.3139 1.5065  79.4 21.4
2018 06 18 16  00 15 35.761   +10 31 40.39  1.3135 1.5063  79.4 21.4
2018 06 18 17  00 15 43.549   +10 32 09.41  1.3132 1.5062  79.5 21.4
2018 06 18 18  00 15 51.338   +10 32 38.40  1.3128 1.5060  79.5 21.4
2018 06 18 19  00 15 59.129   +10 33 07.38  1.3125 1.5058  79.5 21.4
2018 06 18 20  00 16 06.921   +10 33 36.34  1.3121 1.5057  79.5 21.4
2018 06 18 21  00 16 14.714   +10 34 05.29  1.3118 1.5055  79.5 21.4
2018 06 18 22  00 16 22.508   +10 34 34.22  1.3114 1.5053  79.5 21.4
2018 06 18 23  00 16 30.304   +10 35 03.13  1.3110 1.5052  79.5 21.4
2018 06 19 00  00 16 38.101   +10 35 32.03  1.3107 1.5050  79.5 21.4
2018 06 19 01  00 16 45.899   +10 36 00.91  1.3103 1.5049  79.5 21.4
2018 06 19 02  00 16 53.699   +10 36 29.77  1.3100 1.5047  79.5 21.4
2018 06 19 03  00 17 01.500   +10 36 58.62  1.3096 1.5045  79.5 21.4
2018 06 19 04  00 17 09.302   +10 37 27.45  1.3092 1.5044  79.5 21.4
2018 06 19 05  00 17 17.106   +10 37 56.27  1.3089 1.5042  79.5 21.4
2018 06 19 06  00 17 24.911   +10 38 25.06  1.3085 1.5040  79.5 21.4
2018 06 19 07  00 17 32.717   +10 38 53.84  1.3082 1.5039  79.6 21.4
2018 06 19 08  00 17 40.524   +10 39 22.61  1.3078 1.5037  79.6 21.4
2018 06 19 09  00 17 48.333   +10 39 51.36  1.3075 1.5035  79.6 21.4
2018 06 19 10  00 17 56.143   +10 40 20.09  1.3071 1.5034  79.6 21.4
2018 06 19 11  00 18 03.955   +10 40 48.80  1.3067 1.5032  79.6 21.4
2018 06 19 12  00 18 11.768   +10 41 17.50  1.3064 1.5031  79.6 21.4
2018 06 19 13  00 18 19.582   +10 41 46.18  1.3060 1.5029  79.6 21.4
2018 06 19 14  00 18 27.397   +10 42 14.85  1.3057 1.5027  79.6 21.4
2018 06 19 15  00 18 35.214   +10 42 43.50  1.3053 1.5026  79.6 21.4
2018 06 19 16  00 18 43.032   +10 43 12.13  1.3050 1.5024  79.6 21.4
2018 06 19 17  00 18 50.851   +10 43 40.74  1.3046 1.5022  79.6 21.4
2018 06 19 18  00 18 58.672   +10 44 09.34  1.3043 1.5021  79.6 21.4
2018 06 19 19  00 19 06.494   +10 44 37.92  1.3039 1.5019  79.6 21.4
2018 06 19 20  00 19 14.317   +10 45 06.48  1.3035 1.5018  79.6 21.4
2018 06 19 21  00 19 22.141   +10 45 35.03  1.3032 1.5016  79.6 21.4
2018 06 19 22  00 19 29.967   +10 46 03.56  1.3028 1.5014  79.7 21.4
2018 06 19 23  00 19 37.794   +10 46 32.07  1.3025 1.5013  79.7 21.4
2018 06 20 00  00 19 45.623   +10 47 00.57  1.3021 1.5011  79.7 21.4
2018 06 20 01  00 19 53.453   +10 47 29.04  1.3018 1.5010  79.7 21.4
2018 06 20 02  00 20 01.284   +10 47 57.51  1.3014 1.5008  79.7 21.4
2018 06 20 03  00 20 09.116   +10 48 25.95  1.3011 1.5006  79.7 21.4
2018 06 20 04  00 20 16.950   +10 48 54.38  1.3007 1.5005  79.7 21.4
2018 06 20 05  00 20 24.785   +10 49 22.79  1.3004 1.5003  79.7 21.4
2018 06 20 06  00 20 32.621   +10 49 51.18  1.3000 1.5002  79.7 21.4
2018 06 20 07  00 20 40.458   +10 50 19.55  1.2996 1.5000  79.7 21.4
2018 06 20 08  00 20 48.297   +10 50 47.91  1.2993 1.4998  79.7 21.4
2018 06 20 09  00 20 56.137   +10 51 16.25  1.2989 1.4997  79.7 21.4
2018 06 20 10  00 21 03.979   +10 51 44.58  1.2986 1.4995  79.7 21.4
2018 06 20 11  00 21 11.822   +10 52 12.88  1.2982 1.4993  79.7 21.4
2018 06 20 12  00 21 19.666   +10 52 41.17  1.2979 1.4992  79.7 21.4